| time (UTC) | temp F | wind direction | speed knots | gust knots | rain 1hr in | rain 24hr in | rain mn in | humidity % | barometer mb |
| 20260506062055 | 70 | 195 | 1.7 | 3.5 | 0.00 | 0.00 | 0.00 | 30 | 1007.2 |
| 20260506061557 | 71 | 195 | 0.9 | 4.3 | 0.00 | 0.00 | 0.00 | 29 | 1007.3 |
| 20260506061154 | 71 | 195 | 2.6 | 4.3 | 0.00 | 0.00 | 0.00 | 29 | 1007.6 |
| 20260506060653 | 71 | 191 | 2.6 | 4.3 | 0.00 | 0.00 | 0.00 | 29 | 1007.2 |
| 20260506051152 | 71 | 190 | 0.0 | 3.5 | 0.00 | 0.00 | 0.00 | 30 | 1007.4 |
| 20260506050653 | 71 | 193 | 0.0 | 1.7 | 0.00 | 0.00 | 0.00 | 30 | 1007.5 |
| 20260506045050 | 71 | 193 | 0.9 | 1.7 | 0.00 | 0.00 | 0.00 | 28 | 1006.8 |
| 20260506044553 | 71 | 193 | 0.9 | 1.7 | 0.00 | 0.00 | 0.00 | 28 | 1007.1 |
| 20260506044050 | 72 | 193 | 0.0 | 0.0 | 0.00 | 0.00 | 0.00 | 29 | 1007.1 |
| 20260506043650 | 72 | 193 | 0.0 | 0.0 | 0.00 | 0.00 | 0.00 | 29 | 1007.1 |
| 20260506043050 | 72 | 193 | 0.0 | 0.0 | 0.00 | 0.00 | 0.00 | 28 | 1007.0 |
| 20260506042550 | 72 | 193 | 0.0 | 0.0 | 0.00 | 0.00 | 0.00 | 28 | 1007.0 |
| 20260506042051 | 72 | 193 | 0.0 | 0.0 | 0.00 | 0.00 | 0.00 | 27 | 1007.0 |
| 20260506041550 | 72 | 193 | 0.0 | 2.6 | 0.00 | 0.00 | 0.00 | 27 | 1006.9 |
| 20260506041049 | 72 | 193 | 0.9 | 2.6 | 0.00 | 0.00 | 0.00 | 28 | 1007.3 |
| 20260506040649 | 72 | 141 | 0.9 | 2.6 | 0.00 | 0.00 | 0.00 | 28 | 1007.3 |
| 20260506040059 | 72 | 141 | 0.9 | 2.6 | 0.00 | 0.00 | 0.00 | 28 | 1006.7 |
| 20260506035551 | 73 | 139 | 1.7 | 2.6 | 0.00 | 0.00 | 0.00 | 27 | 1006.9 |
| 20260506035050 | 73 | 135 | 1.7 | 2.6 | 0.00 | 0.00 | 0.00 | 26 | 1006.9 |
| 20260506034603 | 73 | 134 | 0.0 | 1.7 | 0.00 | 0.00 | 0.00 | 26 | 1006.8 |
| 20260506034049 | 73 | 134 | 0.0 | 1.7 | 0.00 | 0.00 | 0.00 | 27 | 1006.7 |
| 20260506033549 | 73 | 133 | 0.9 | 1.7 | 0.00 | 0.00 | 0.00 | 26 | 1006.7 |
| 20260506033049 | 73 | 133 | 0.0 | 2.6 | 0.00 | 0.00 | 0.00 | 26 | 1006.6 |
| 20260506032549 | 74 | 133 | 0.9 | 2.6 | 0.00 | 0.00 | 0.00 | 25 | 1006.6 |
| 20260506032051 | 74 | 134 | 0.9 | 1.7 | 0.00 | 0.00 | 0.00 | 25 | 1006.5 |
| 20260506031558 | 74 | 135 | 0.0 | 1.7 | 0.00 | 0.00 | 0.00 | 24 | 1006.5 |
| 20260506031054 | 75 | 135 | 0.0 | 1.7 | 0.00 | 0.00 | 0.00 | 23 | 1006.4 |
| 20260506030549 | 75 | 135 | 0.9 | 2.6 | 0.00 | 0.00 | 0.00 | 23 | 1006.5 |
| 20260506030048 | 75 | 135 | 0.9 | 2.6 | 0.00 | 0.00 | 0.00 | 22 | 1006.5 |
| 20260506025548 | 75 | 135 | 0.0 | 1.7 | 0.00 | 0.00 | 0.00 | 23 | 1006.3 |
| 20260506025048 | 76 | 135 | 0.0 | 1.7 | 0.00 | 0.00 | 0.00 | 23 | 1006.5 |
| 20260506024548 | 76 | 135 | 0.9 | 1.7 | 0.00 | 0.00 | 0.00 | 22 | 1006.4 |
| 20260506024048 | 77 | 135 | 0.9 | 1.7 | 0.00 | 0.00 | 0.00 | 21 | 1006.4 |
| 20260506023549 | 77 | 135 | 0.0 | 4.3 | 0.00 | 0.00 | 0.00 | 20 | 1006.5 |
| 20260506023048 | 78 | 135 | 1.7 | 4.3 | 0.00 | 0.00 | 0.00 | 20 | 1006.4 |
| 20260506022547 | 78 | 351 | 0.0 | 1.7 | 0.00 | 0.00 | 0.00 | 18 | 1006.2 |
| 20260506022046 | 78 | 351 | 0.0 | 2.6 | 0.00 | 0.00 | 0.00 | 17 | 1006.2 |
| 20260506021550 | 78 | 351 | 0.0 | 2.6 | 0.00 | 0.00 | 0.00 | 17 | 1006.0 |
| 20260506021047 | 79 | 351 | 0.9 | 2.6 | 0.00 | 0.00 | 0.00 | 17 | 1006.1 |
| 20260506020645 | 79 | 351 | 0.0 | 1.7 | 0.00 | 0.00 | 0.00 | 17 | 1006.1 |
| 20260506020047 | 79 | 351 | 0.0 | 1.7 | 0.00 | 0.00 | 0.00 | 16 | 1006.2 |
| 20260506015548 | 80 | 351 | 0.9 | 1.7 | 0.00 | 0.00 | 0.00 | 15 | 1006.2 |
| 20260506015048 | 80 | 351 | 0.9 | 2.6 | 0.00 | 0.00 | 0.00 | 15 | 1005.9 |
| 20260506014546 | 81 | 351 | 0.9 | 3.5 | 0.00 | 0.00 | 0.00 | 14 | 1005.8 |
| 20260506014050 | 81 | 351 | 0.9 | 3.5 | 0.00 | 0.00 | 0.00 | 13 | 1006.0 |
| 20260506013546 | 81 | 349 | 0.9 | 3.5 | 0.00 | 0.00 | 0.00 | 13 | 1006.0 |
| 20260506013047 | 81 | 358 | 1.7 | 4.3 | 0.00 | 0.00 | 0.00 | 13 | 1005.9 |
| 20260506012546 | 82 | 352 | 1.7 | 5.2 | 0.00 | 0.00 | 0.00 | 12 | 1005.9 |
| 20260506012046 | 82 | 341 | 2.6 | 4.3 | 0.00 | 0.00 | 0.00 | 12 | 1006.0 |
| 20260506011545 | 82 | 360 | 2.6 | 4.3 | 0.00 | 0.00 | 0.00 | 12 | 1005.9 |
| 20260506011045 | 83 | 358 | 1.7 | 5.2 | 0.00 | 0.00 | 0.00 | 11 | 1005.8 |
| 20260506010645 | 83 | 5 | 2.6 | 5.2 | 0.00 | 0.00 | 0.00 | 11 | 1005.7 |
| 20260506010045 | 83 | 4 | 2.6 | 5.2 | 0.00 | 0.00 | 0.00 | 11 | 1005.7 |
| 20260506005543 | 84 | 17 | 2.6 | 7.0 | 0.00 | 0.00 | 0.00 | 11 | 1005.5 |
| 20260506005043 | 84 | 335 | 2.6 | 8.7 | 0.00 | 0.00 | 0.00 | 10 | 1005.5 |
| 20260506004542 | 84 | 355 | 4.3 | 8.7 | 0.00 | 0.00 | 0.00 | 10 | 1005.4 |
| 20260506004042 | 85 | 353 | 3.5 | 13.0 | 0.00 | 0.00 | 0.00 | 10 | 1005.3 |
| 20260506003543 | 85 | 348 | 5.2 | 13.0 | 0.00 | 0.00 | 0.00 | 9 | 1005.3 |
| 20260506003043 | 85 | 9 | 4.3 | 10.4 | 0.00 | 0.00 | 0.00 | 9 | 1005.2 |
| 20260506002542 | 86 | 343 | 4.3 | 11.3 | 0.00 | 0.00 | 0.00 | 9 | 1005.2 |
| 20260506002042 | 87 | 7 | 6.1 | 11.3 | 0.00 | 0.00 | 0.00 | 9 | 1005.2 |
| 20260506001542 | 87 | 32 | 4.3 | 10.4 | 0.00 | 0.00 | 0.00 | 8 | 1005.1 |
| 20260506001041 | 88 | 27 | 5.2 | 13.0 | 0.00 | 0.00 | 0.00 | 7 | 1005.1 |
| 20260506000644 | 88 | 330 | 3.5 | 8.7 | 0.00 | 0.00 | 0.00 | 9 | 1005.0 |
| 20260506000042 | 88 | 349 | 4.3 | 8.7 | 0.00 | 0.00 | 0.00 | 9 | 1005.0 |
| 20260505235541 | 88 | 353 | 2.6 | 7.8 | 0.00 | 0.00 | 0.00 | 11 | 1005.1 |
| 20260505235041 | 88 | 20 | 1.7 | 8.7 | 0.00 | 0.00 | 0.00 | 11 | 1005.1 |
| 20260505234547 | 88 | 10 | 4.3 | 9.6 | 0.00 | 0.00 | 0.00 | 11 | 1005.1 |
| 20260505234144 | 88 | 13 | 5.2 | 10.4 | 0.00 | 0.00 | 0.00 | 10 | 1005.1 |
| 20260505233540 | 88 | 356 | 3.5 | 8.7 | 0.00 | 0.00 | 0.00 | 11 | 1005.0 |
| 20260505233042 | 88 | 356 | 4.3 | 8.7 | 0.00 | 0.00 | 0.00 | 10 | 1004.7 |
| 20260505232540 | 88 | 342 | 5.2 | 9.6 | 0.00 | 0.00 | 0.00 | 10 | 1004.9 |
| 20260505232041 | 89 | 347 | 4.3 | 9.6 | 0.00 | 0.00 | 0.00 | 10 | 1004.9 |
| 20260505231547 | 89 | 2 | 4.3 | 8.7 | 0.00 | 0.00 | 0.00 | 10 | 1005.0 |
| 20260505231039 | 89 | 336 | 3.5 | 8.7 | 0.00 | 0.00 | 0.00 | 9 | 1004.9 |
| 20260505230639 | 90 | 10 | 2.6 | 8.7 | 0.00 | 0.00 | 0.00 | 10 | 1005.0 |
| 20260505230039 | 90 | 325 | 4.3 | 8.7 | 0.00 | 0.00 | 0.00 | 9 | 1005.0 |
| 20260505225539 | 90 | 5 | 3.5 | 12.2 | 0.00 | 0.00 | 0.00 | 10 | 1004.9 |
| 20260505225040 | 90 | 5 | 2.6 | 12.2 | 0.00 | 0.00 | 0.00 | 9 | 1005.1 |
| 20260505224538 | 90 | 2 | 3.5 | 8.7 | 0.00 | 0.00 | 0.00 | 9 | 1005.0 |
| 20260505224038 | 90 | 313 | 5.2 | 10.4 | 0.00 | 0.00 | 0.00 | 9 | 1005.0 |
| 20260505223538 | 90 | 316 | 5.2 | 11.3 | 0.00 | 0.00 | 0.00 | 9 | 1005.0 |
| 20260505223048 | 91 | 295 | 4.3 | 11.3 | 0.00 | 0.00 | 0.00 | 8 | 1005.1 |
| 20260505222537 | 91 | 35 | 5.2 | 11.3 | 0.00 | 0.00 | 0.00 | 9 | 1005.2 |
| 20260505222038 | 91 | 336 | 2.6 | 9.6 | 0.00 | 0.00 | 0.00 | 8 | 1005.1 |
| 20260505221537 | 91 | 325 | 5.2 | 12.2 | 0.00 | 0.00 | 0.00 | 9 | 1005.1 |
| 20260505221036 | 91 | 2 | 6.1 | 12.2 | 0.00 | 0.00 | 0.00 | 8 | 1005.1 |
| 20260505220637 | 91 | 29 | 4.3 | 12.2 | 0.00 | 0.00 | 0.00 | 8 | 1005.1 |
| 20260505220042 | 91 | 321 | 5.2 | 12.2 | 0.00 | 0.00 | 0.00 | 8 | 1005.3 |
| 20260505215538 | 91 | 325 | 7.0 | 12.2 | 0.00 | 0.00 | 0.00 | 8 | 1005.4 |
| 20260505215038 | 92 | 360 | 5.2 | 13.9 | 0.00 | 0.00 | 0.00 | 8 | 1005.4 |
| 20260505214547 | 92 | 345 | 5.2 | 13.9 | 0.00 | 0.00 | 0.00 | 7 | 1005.5 |
| 20260505214037 | 92 | 306 | 6.1 | 13.0 | 0.00 | 0.00 | 0.00 | 8 | 1005.5 |
| 20260505213536 | 91 | 358 | 3.5 | 12.2 | 0.00 | 0.00 | 0.00 | 8 | 1005.6 |
| 20260505213038 | 91 | 323 | 7.8 | 13.9 | 0.00 | 0.00 | 0.00 | 8 | 1005.7 |
| 20260505212536 | 92 | 304 | 7.0 | 13.0 | 0.00 | 0.00 | 0.00 | 8 | 1005.6 |
| 20260505212035 | 92 | 351 | 5.2 | 13.0 | 0.00 | 0.00 | 0.00 | 8 | 1005.8 |
| 20260505211536 | 92 | 339 | 6.1 | 12.2 | 0.00 | 0.00 | 0.00 | 8 | 1005.8 |
| 20260505211038 | 92 | 338 | 6.1 | 16.5 | 0.00 | 0.00 | 0.00 | 7 | 1005.8 |
| 20260505210635 | 92 | 358 | 6.1 | 16.5 | 0.00 | 0.00 | 0.00 | 8 | 1005.8 |
| 20260505210034 | 92 | 340 | 7.0 | 16.5 | 0.00 | 0.00 | 0.00 | 8 | 1005.9 |
| 20260505205533 | 92 | 310 | 6.1 | 12.2 | 0.00 | 0.00 | 0.00 | 8 | 1005.8 |
| 20260505205032 | 92 | 331 | 5.2 | 13.0 | 0.00 | 0.00 | 0.00 | 8 | 1005.9 |
| 20260505204535 | 91 | 337 | 6.1 | 13.0 | 0.00 | 0.00 | 0.00 | 9 | 1006.0 |
| 20260505204030 | 90 | 2 | 5.2 | 11.3 | 0.00 | 0.00 | 0.00 | 9 | 1006.1 |
| 20260505203530 | 90 | 264 | 7.0 | 12.2 | 0.00 | 0.00 | 0.00 | 9 | 1006.0 |
| 20260505203032 | 91 | 312 | 5.2 | 12.2 | 0.00 | 0.00 | 0.00 | 8 | 1006.2 |
| 20260505202530 | 92 | 338 | 6.1 | 13.0 | 0.00 | 0.00 | 0.00 | 8 | 1006.2 |
| 20260505202030 | 92 | 328 | 7.8 | 11.3 | 0.00 | 0.00 | 0.00 | 8 | 1006.2 |
| 20260505201528 | 92 | 329 | 5.2 | 12.2 | 0.00 | 0.00 | 0.00 | 8 | 1006.2 |
| 20260505201029 | 91 | 316 | 7.0 | 15.6 | 0.00 | 0.00 | 0.00 | 9 | 1006.3 |
| 20260505200629 | 91 | 336 | 7.0 | 15.6 | 0.00 | 0.00 | 0.00 | 9 | 1006.4 |
| 20260505200040 | 91 | 344 | 7.8 | 15.6 | 0.00 | 0.00 | 0.00 | 8 | 1006.4 |
| 20260505195534 | 91 | 306 | 7.0 | 15.6 | 0.00 | 0.00 | 0.00 | 8 | 1006.4 |
| 20260505195031 | 91 | 308 | 7.8 | 11.3 | 0.00 | 0.00 | 0.00 | 8 | 1006.5 |
| 20260505194529 | 91 | 309 | 5.2 | 10.4 | 0.00 | 0.00 | 0.00 | 9 | 1006.5 |
| 20260505194029 | 90 | 338 | 7.0 | 14.8 | 0.00 | 0.00 | 0.00 | 9 | 1006.5 |
| 20260505193529 | 90 | 290 | 5.2 | 15.6 | 0.00 | 0.00 | 0.00 | 9 | 1006.5 |
| 20260505193030 | 90 | 12 | 7.0 | 15.6 | 0.00 | 0.00 | 0.00 | 9 | 1006.5 |
| 20260505192531 | 90 | 334 | 7.8 | 15.6 | 0.00 | 0.00 | 0.00 | 9 | 1006.5 |
| 20260505192028 | 90 | 309 | 9.6 | 16.5 | 0.00 | 0.00 | 0.00 | 9 | 1006.6 |
| 20260505191528 | 90 | 281 | 6.1 | 16.5 | 0.00 | 0.00 | 0.00 | 9 | 1006.7 |
| 20260505191028 | 90 | 327 | 8.7 | 16.5 | 0.00 | 0.00 | 0.00 | 9 | 1006.7 |
| 20260505190627 | 90 | 309 | 7.0 | 12.2 | 0.00 | 0.00 | 0.00 | 9 | 1006.9 |
| 20260505190031 | 90 | 327 | 6.1 | 12.2 | 0.00 | 0.00 | 0.00 | 9 | 1006.9 |
| 20260505185623 | 89 | 351 | 6.1 | 12.2 | 0.00 | 0.00 | 0.00 | 10 | 1006.8 |
| 20260505185023 | 89 | 324 | 7.0 | 14.8 | 0.00 | 0.00 | 0.00 | 9 | 1006.8 |
| 20260505184523 | 89 | 284 | 7.0 | 19.1 | 0.00 | 0.00 | 0.00 | 9 | 1006.9 |
| 20260505184023 | 89 | 340 | 7.8 | 19.1 | 0.00 | 0.00 | 0.00 | 9 | 1007.0 |
| 20260505183521 | 90 | 320 | 6.1 | 13.9 | 0.00 | 0.00 | 0.00 | 9 | 1007.1 |
| 20260505183021 | 90 | 330 | 6.1 | 13.0 | 0.00 | 0.00 | 0.00 | 9 | 1007.1 |
| 20260505182521 | 90 | 38 | 5.2 | 13.9 | 0.00 | 0.00 | 0.00 | 9 | 1007.2 |
| 20260505182022 | 89 | 344 | 4.3 | 13.9 | 0.00 | 0.00 | 0.00 | 10 | 1007.3 |
| 20260505181521 | 89 | 299 | 7.0 | 17.4 | 0.00 | 0.00 | 0.00 | 10 | 1007.5 |
| 20260505181021 | 89 | 286 | 7.8 | 17.4 | 0.00 | 0.00 | 0.00 | 9 | 1007.5 |
| 20260505180619 | 89 | 344 | 5.2 | 12.2 | 0.00 | 0.00 | 0.00 | 10 | 1007.5 |
| 20260505180022 | 89 | 319 | 5.2 | 12.2 | 0.00 | 0.00 | 0.00 | 10 | 1007.7 |
| 20260505175522 | 89 | 336 | 7.8 | 13.9 | 0.00 | 0.00 | 0.00 | 10 | 1007.6 |
| 20260505175021 | 88 | 327 | 4.3 | 16.5 | 0.00 | 0.00 | 0.00 | 11 | 1007.6 |
| 20260505174521 | 88 | 318 | 5.2 | 16.5 | 0.00 | 0.00 | 0.00 | 10 | 1007.7 |
| 20260505174021 | 89 | 342 | 6.1 | 16.5 | 0.00 | 0.00 | 0.00 | 11 | 1007.6 |
| 20260505173521 | 89 | 343 | 9.6 | 16.5 | 0.00 | 0.00 | 0.00 | 11 | 1007.7 |
| 20260505173019 | 88 | 19 | 3.5 | 11.3 | 0.00 | 0.00 | 0.00 | 12 | 1007.7 |
| 20260505172520 | 88 | 333 | 6.1 | 12.2 | 0.00 | 0.00 | 0.00 | 12 | 1007.8 |
| 20260505172019 | 87 | 348 | 3.5 | 9.6 | 0.00 | 0.00 | 0.00 | 15 | 1007.8 |
| 20260505171522 | 87 | 334 | 5.2 | 9.6 | 0.00 | 0.00 | 0.00 | 15 | 1007.9 |
| 20260505171016 | 86 | 346 | 5.2 | 7.8 | 0.00 | 0.00 | 0.00 | 17 | 1007.7 |
| 20260505170516 | 86 | 346 | 5.2 | 7.8 | 0.00 | 0.00 | 0.00 | 17 | 1007.9 |
| 20260505170017 | 86 | 351 | 5.2 | 7.8 | 0.00 | 0.00 | 0.00 | 17 | 1008.0 |
| 20260505165512 | 85 | 27 | 4.3 | 8.7 | 0.00 | 0.00 | 0.00 | 21 | 1008.0 |
| 20260505165013 | 85 | 335 | 2.6 | 8.7 | 0.00 | 0.00 | 0.00 | 23 | 1008.0 |
| 20260505164509 | 84 | 346 | 3.5 | 8.7 | 0.00 | 0.00 | 0.00 | 21 | 1008.0 |
| 20260505164008 | 83 | 353 | 3.5 | 11.3 | 0.00 | 0.00 | 0.00 | 23 | 1008.0 |
| 20260505163509 | 83 | 354 | 2.6 | 11.3 | 0.00 | 0.00 | 0.00 | 26 | 1007.9 |
| 20260505163009 | 83 | 341 | 3.5 | 8.7 | 0.00 | 0.00 | 0.00 | 25 | 1007.9 |
| 20260505162505 | 83 | 338 | 4.3 | 9.6 | 0.00 | 0.00 | 0.00 | 24 | 1007.9 |
| 20260505162004 | 82 | 313 | 4.3 | 9.6 | 0.00 | 0.00 | 0.00 | 27 | 1008.0 |
| 20260505161503 | 81 | 342 | 2.6 | 6.1 | 0.00 | 0.00 | 0.00 | 35 | 1007.9 |
| 20260505161001 | 80 | 24 | 0.0 | 3.5 | 0.00 | 0.00 | 0.00 | 40 | 1008.0 |
| 20260505160601 | 78 | 175 | 0.0 | 2.6 | 0.00 | 0.00 | 0.00 | 43 | 1007.9 |
| 20260505153058 | 75 | 144 | 1.7 | 4.3 | 0.00 | 0.00 | 0.00 | 54 | 1007.9 |
| 20260505152557 | 74 | 117 | 0.9 | 4.3 | 0.00 | 0.00 | 0.00 | 55 | 1007.9 |
| 20260505152055 | 74 | 165 | 2.6 | 5.2 | 0.00 | 0.00 | 0.00 | 55 | 1007.9 |
| 20260505151555 | 74 | 202 | 3.5 | 6.1 | 0.00 | 0.00 | 0.00 | 54 | 1008.0 |
| 20260505151057 | 74 | 214 | 1.7 | 5.2 | 0.00 | 0.00 | 0.00 | 53 | 1007.9 |
| 20260505150553 | 73 | 193 | 0.9 | 4.3 | 0.00 | 0.00 | 0.00 | 55 | 1007.8 |
| 20260505140539 | 68 | 174 | 1.7 | 3.5 | 0.00 | 0.00 | 0.00 | 62 | 1007.9 |
| 20260505125029 | 65 | 196 | 0.0 | 0.9 | 0.00 | 0.00 | 0.00 | 64 | 1007.1 |
| 20260505124530 | 65 | 196 | 0.0 | 0.9 | 0.00 | 0.00 | 0.00 | 64 | 1007.0 |
| 20260505124027 | 65 | 196 | 0.0 | 0.9 | 0.00 | 0.00 | 0.00 | 64 | 1006.9 |
| 20260505123530 | 65 | 196 | 0.0 | 0.9 | 0.00 | 0.00 | 0.00 | 65 | 1006.8 |
| 20260505123026 | 65 | 196 | 0.0 | 1.7 | 0.00 | 0.00 | 0.00 | 64 | 1006.7 |
| 20260505122526 | 65 | 196 | 0.0 | 2.6 | 0.00 | 0.00 | 0.00 | 64 | 1006.6 |
| 20260505122028 | 65 | 231 | 0.9 | 2.6 | 0.00 | 0.00 | 0.00 | 64 | 1006.5 |
| 20260505121526 | 65 | 269 | 0.0 | 0.9 | 0.00 | 0.00 | 0.00 | 64 | 1006.5 |
| 20260505121025 | 65 | 270 | 0.0 | 0.9 | 0.00 | 0.00 | 0.00 | 64 | 1006.6 |
| 20260505120525 | 65 | 270 | 0.0 | 0.0 | 0.00 | 0.00 | 0.00 | 64 | 1006.5 |
| 20260505115527 | 65 | 270 | 0.0 | 0.9 | 0.00 | 0.00 | 0.00 | 64 | 1006.4 |
| 20260505115027 | 65 | 271 | 0.0 | 0.9 | 0.00 | 0.00 | 0.00 | 64 | 1006.4 |
| 20260505114527 | 65 | 275 | 0.0 | 1.7 | 0.00 | 0.00 | 0.00 | 64 | 1006.4 |
| 20260505114027 | 65 | 277 | 0.0 | 1.7 | 0.00 | 0.00 | 0.00 | 65 | 1006.3 |
| 20260505113525 | 65 | 279 | 0.0 | 0.9 | 0.00 | 0.00 | 0.00 | 64 | 1006.3 |
| 20260505113025 | 65 | 278 | 0.0 | 0.0 | 0.00 | 0.00 | 0.00 | 64 | 1006.3 |
| 20260505112525 | 65 | 271 | 0.0 | 0.0 | 0.00 | 0.00 | 0.00 | 64 | 1006.4 |
| 20260505112025 | 65 | 270 | 0.0 | 1.7 | 0.00 | 0.00 | 0.00 | 64 | 1006.4 |
| 20260505111533 | 65 | 269 | 0.0 | 1.7 | 0.00 | 0.00 | 0.00 | 63 | 1006.4 |
| 20260505111023 | 65 | 269 | 0.0 | 1.7 | 0.00 | 0.00 | 0.00 | 63 | 1006.2 |
| 20260505110522 | 66 | 269 | 0.0 | 1.7 | 0.00 | 0.00 | 0.00 | 63 | 1006.3 |
| 20260505102013 | 68 | 269 | 0.0 | 1.7 | 0.00 | 0.00 | 0.00 | 60 | 1006.1 |
| 20260505101513 | 68 | 269 | 0.0 | 2.6 | 0.00 | 0.00 | 0.00 | 60 | 1006.1 |
| 20260505101013 | 68 | 269 | 0.0 | 2.6 | 0.00 | 0.00 | 0.00 | 60 | 1006.2 |
| 20260505100513 | 69 | 193 | 0.0 | 2.6 | 0.00 | 0.00 | 0.00 | 60 | 1006.1 |
| 20260505095513 | 69 | 193 | 0.0 | 1.7 | 0.00 | 0.00 | 0.00 | 60 | 1006.0 |
| 20260505095012 | 69 | 193 | 0.9 | 1.7 | 0.00 | 0.00 | 0.00 | 59 | 1006.0 |
| 20260505094612 | 69 | 193 | 0.0 | 1.7 | 0.00 | 0.00 | 0.00 | 59 | 1006.0 |
| 20260505094012 | 69 | 193 | 0.9 | 2.6 | 0.00 | 0.00 | 0.00 | 60 | 1005.9 |
| 20260505093512 | 69 | 193 | 0.9 | 3.5 | 0.00 | 0.00 | 0.00 | 60 | 1006.0 |
| 20260505093012 | 69 | 193 | 1.7 | 3.5 | 0.00 | 0.00 | 0.00 | 60 | 1005.9 |
| 20260505092512 | 69 | 193 | 0.0 | 1.7 | 0.00 | 0.00 | 0.00 | 60 | 1006.0 |
| 20260505092011 | 69 | 193 | 0.0 | 1.7 | 0.00 | 0.00 | 0.00 | 59 | 1006.0 |
| 20260505091511 | 69 | 193 | 0.0 | 1.7 | 0.00 | 0.00 | 0.00 | 59 | 1006.0 |
| 20260505091011 | 69 | 193 | 0.0 | 1.7 | 0.00 | 0.00 | 0.00 | 59 | 1006.1 |
| 20260505090512 | 69 | 193 | 0.0 | 1.7 | 0.00 | 0.00 | 0.00 | 59 | 1005.9 |
| 20260505085510 | 70 | 193 | 0.0 | 3.5 | 0.00 | 0.00 | 0.00 | 59 | 1006.0 |
| 20260505085011 | 70 | 193 | 1.7 | 5.2 | 0.00 | 0.00 | 0.00 | 59 | 1005.9 |
| 20260505084517 | 70 | 220 | 1.7 | 5.2 | 0.00 | 0.00 | 0.00 | 59 | 1006.0 |
| 20260505084010 | 70 | 212 | 1.7 | 3.5 | 0.00 | 0.00 | 0.00 | 58 | 1006.0 |
| 20260505083510 | 70 | 197 | 1.7 | 3.5 | 0.00 | 0.00 | 0.00 | 58 | 1006.2 |
| 20260505083013 | 70 | 185 | 0.9 | 3.5 | 0.00 | 0.00 | 0.00 | 58 | 1006.2 |
| 20260505082509 | 70 | 166 | 0.9 | 2.6 | 0.00 | 0.00 | 0.00 | 58 | 1006.0 |
| 20260505082011 | 70 | 167 | 0.9 | 2.6 | 0.00 | 0.00 | 0.00 | 57 | 1006.3 |
| 20260505081510 | 70 | 166 | 0.0 | 1.7 | 0.00 | 0.00 | 0.00 | 57 | 1006.3 |
| 20260505081010 | 70 | 166 | 0.0 | 1.7 | 0.00 | 0.00 | 0.00 | 57 | 1006.3 |
| 20260505080511 | 71 | 167 | 0.9 | 3.5 | 0.00 | 0.00 | 0.00 | 57 | 1006.4 |
| 20260505075510 | 71 | 193 | 0.0 | 2.6 | 0.00 | 0.00 | 0.00 | 56 | 1006.6 |
| 20260505075014 | 71 | 193 | 0.0 | 0.9 | 0.00 | 0.00 | 0.00 | 56 | 1006.5 |
| 20260505074510 | 71 | 193 | 0.0 | 2.6 | 0.00 | 0.00 | 0.00 | 56 | 1006.6 |
| 20260505074011 | 71 | 193 | 0.0 | 3.5 | 0.00 | 0.00 | 0.00 | 55 | 1006.5 |
| 20260505073511 | 71 | 193 | 1.7 | 3.5 | 0.00 | 0.00 | 0.00 | 55 | 1006.5 |
| 20260505073012 | 71 | 164 | 0.9 | 3.5 | 0.00 | 0.00 | 0.00 | 55 | 1006.6 |
| 20260505072510 | 72 | 186 | 0.9 | 3.5 | 0.00 | 0.00 | 0.00 | 55 | 1006.7 |
| 20260505072010 | 72 | 187 | 1.7 | 4.3 | 0.00 | 0.00 | 0.00 | 54 | 1006.9 |
| 20260505071523 | 72 | 194 | 1.7 | 4.3 | 0.00 | 0.00 | 0.00 | 54 | 1006.9 |
| 20260505071010 | 72 | 191 | 1.7 | 3.5 | 0.00 | 0.00 | 0.00 | 54 | 1006.9 |